Tracking 28794 objects as of 19-Apr-2024
HD Live streaming from Space Station
objects crossing your sky now

NOAA 16 DEB

Track NOAA 16 DEB now!
10-day predictions


NORAD ID: 41290
Int'l Code: 2000-055GS
Perigee: 762.4 km
Apogee: 791.1 km
Inclination: 99.0 °
Period: 100.2 minutes
Semi major axis: 7147 km
RCS: Unknown
Launch date: September 21, 2000
Source: United States (US)
Launch site: AIR FORCE WESTERN TEST RANGE (AFWTR)

Note: This is SATELLITE DEBRIS
Your satellite tracking list
Your tracking list is empty




NASA's NSSDC Master Catalog

Two Line Element Set (TLE):
1 41290U 00055GS  24110.45650795  .00022385  00000-0  75793-2 0  9998
2 41290  99.0297 284.8132 0020106 324.1907  35.7928 14.36645340431993
Source of the keplerian elements: AFSPC